EHI
89 88 80 55 21 4 1 0 0 0 0 0 0 0 0 0 1 2 3 5 15 24 15 5 4 3 3 3 3 3 3 3 3 3 3 3 3 3 3 3 3 3 3 4 6 8 9 8 7
84 77 63 41 17 3 1 0 0 0 0 0 0 0 0 0 1 2 3 4 12 17 12 6 4 3 3 3 3 3 3 3 3 3 3 3 3 3 3 3 3 2 3 3 4 5 6 5 5
80 68 48 28 10 2 0 0 0 0 0 0 0 0 0 0 1 2 3 4 7 10 9 8 5 3 3 3 3 3 3 3 3 3 3 3 3 3 3 3 3 3 3 3 3 3 3 3 3
67 55 36 17 5 1 0 0 0 0 0 0 0 0 0 0 1 2 3 3 5 8 9 8 6 4 3 3 3 3 3 3 3 3 3 3 3 3 3 3 3 3 3 3 3 3 3 3 3
44 33 19 8 1 0 0 0 0 0 0 0 0 0 0 1 2 2 3 3 5 7 7 6 5 4 3 3 3 3 3 3 3 3 3 3 3 3 3 3 3 3 3 3 3 3 3 3 3
25 16 8 3 1 0 0 0 0 0 0 0 0 0 0 1 2 3 3 3 4 6 6 5 4 4 3 3 3 3 3 3 3 3 3 3 3 3 3 3 3 3 3 3 3 3 3 3 3
13 10 5 2 1 0 0 0 0 0 0 0 0 0 0 0 1 3 3 3 4 5 4 4 4 3 3 3 3 3 3 3 3 3 3 3 3 3 3 3 3 3 3 3 3 3 3 3 3
6 6 4 2 0 0 0 0 0 0 0 0 0 0 0 0 1 2 3 3 3 4 4 4 4 4 3 3 3 3 3 3 3 3 3 3 3 3 3 3 2 2 3 3 3 3 3 3 3
4 4 3 2 1 0 0 0 0 0 0 0 0 0 0 0 0 1 2 2 2 3 4 5 5 5 4 3 3 3 3 3 3 3 3 3 3 3 3 2 1 1 3 3 3 3 3 3 3
3 3 3 3 1 0 0 0 0 0 0 0 0 0 0 0 0 0 1 1 1 2 4 5 7 6 5 4 4 3 3 3 3 3 3 3 3 3 1 1 1 2 3 3 3 3 3 2 2
3 3 3 3 2 1 0 0 0 0 0 0 0 0 0 0 0 0 0 0 0 0 2 5 7 7 6 5 5 4 3 3 3 3 3 3 3 2 1 1 2 3 3 3 3 3 1 1 1
3 3 3 3 2 1 0 0 0 0 0 0 0 0 0 0 0 0 0 0 0 0 1 4 6 8 6 5 5 4 3 3 3 3 3 3 3 3 1 1 3 3 3 3 3 2 1 0 1
3 3 3 3 3 1 0 0 0 0 0 0 0 0 0 0 0 0 0 0 0 1 2 3 6 7 7 6 6 4 3 3 3 3 3 2 2 3 3 3 3 3 3 3 3 1 0 0 0
3 3 3 3 3 2 1 0 0 0 0 0 0 0 0 0 0 0 0 0 0 1 2 4 5 6 7 7 5 4 4 3 3 3 3 1 1 2 3 3 3 3 3 3 2 1 0 0 0
3 3 3 3 3 3 2 1 0 0 0 0 0 0 0 0 0 0 0 0 0 1 3 5 5 5 6 8 7 6 5 4 3 3 3 2 1 1 2 3 3 3 3 2 1 1 0 0 0
3 3 3 3 3 3 3 2 1 0 0 0 0 0 0 0 0 0 0 0 1 2 6 10 11 11 12 15 17 14 9 6 5 4 3 2 1 0 1 3 3 3 3 3 2 2 1 0 0
3 3 3 3 3 3 3 3 2 1 0 0 0 0 0 0 0 0 0 0 1 3 8 18 27 31 33 38 38 30 19 12 8 5 4 3 1 0 1 2 3 3 4 3 3 3 2 1 0
3 3 2 2 2 2 2 2 2 2 1 0 0 0 0 0 0 0 1 1 2 4 9 24 44 57 64 69 66 56 43 30 19 11 6 3 2 1 1 2 3 4 6 5 5 5 4 2 1
3 3 2 1 1 1 1 1 2 2 1 0 0 0 0 0 1 4 7 5 5 8 15 30 55 75 86 90 88 82 70 52 34 20 11 6 4 3 2 2 3 9 14 13 9 6 4 3 3
3 2 1 1 0 0 0 0 1 1 0 0 0 0 0 0 3 9 12 11 12 17 25 39 61 81 91 96 97 94 82 62 45 32 19 11 8 6 5 4 6 17 28 24 13 7 4 3 3
1 1 1 0 0 0 0 0 0 0 0 0 0 0 0 0 3 8 12 15 19 25 32 43 61 77 87 91 91 88 78 61 48 38 26 18 15 12 10 9 10 21 32 27 13 6 4 3 3
0 0 0 0 0 0 0 0 0 0 0 1 0 0 0 0 2 8 13 15 18 24 30 39 54 67 75 76 75 71 64 52 40 31 24 21 21 19 17 17 18 24 30 23 10 5 4 3 2
0 0 0 0 0 0 0 0 0 0 0 0 0 0 0 0 2 8 13 13 15 19 23 30 43 54 56 54 53 49 42 33 26 20 16 18 24 25 22 23 25 28 30 22 11 5 5 3 1
0 0 0 0 0 0 0 0 0 0 0 0 0 0 0 0 2 7 14 19 20 19 19 22 31 37 35 30 29 27 24 21 18 13 11 16 24 26 22 22 27 30 28 21 12 6 5 3 1
0 0 0 0 0 0 0 0 0 0 0 0 0 0 1 1 3 7 17 24 22 16 13 14 18 20 17 13 13 16 18 18 15 12 11 15 19 19 16 17 24 26 23 17 11 7 5 3 1
0 0 0 0 0 0 0 0 0 0 0 0 0 1 2 3 4 8 15 17 13 9 7 8 11 12 10 6 6 10 14 14 12 11 12 13 12 10 10 13 17 19 15 12 11 9 6 3 1
0 0 0 0 0 0 0 0 0 0 0 0 1 2 3 3 4 6 8 8 7 7 7 9 15 18 13 7 4 5 8 10 9 9 11 11 8 7 8 11 12 12 10 11 12 10 6 3 1
0 0 0 0 0 0 0 0 0 0 0 0 1 2 3 3 3 4 4 5 7 12 17 21 29 32 23 11 6 6 6 8 8 8 9 8 7 7 9 11 11 10 9 10 10 7 4 1 0
0 0 0 0 0 0 0 0 0 0 0 0 0 1 1 2 3 3 3 3 6 15 27 39 48 47 34 19 14 13 10 8 8 7 6 6 6 7 9 9 8 8 7 7 7 5 2 1 0
0 0 0 0 0 0 0 0 0 0 0 0 0 0 0 1 3 3 2 2 6 14 31 50 60 56 41 25 19 18 14 11 9 6 6 5 6 7 8 7 6 5 5 5 5 3 1 0 0
Wind_Speed
13 13 9 3 3 2 7 6 7 7 9 9 7 6 13 14 10 7 4 9 15 16 15 13 13 12 11 10 9 8 8 8 9 9 9 9 10 10 10 9 8 8 8 8 9 10 11 12 11
12 10 5 3 3 1 7 6 7 10 8 5 6 11 15 13 13 9 5 9 15 16 14 13 13 12 10 10 9 8 8 8 8 8 9 9 9 10 9 9 8 7 6 7 8 10 11 12 11
12 10 5 3 2 6 7 6 7 10 8 7 6 12 11 8 10 9 9 10 12 14 13 14 14 12 10 10 9 9 8 8 8 8 8 9 9 9 9 8 7 7 7 7 8 9 10 11 11
7 5 5 3 1 6 5 7 7 6 4 5 7 10 11 10 8 13 12 11 13 13 13 14 13 11 10 10 9 9 8 8 8 9 9 9 9 10 9 8 7 7 7 7 7 8 9 10 10
4 4 5 3 3 5 5 7 5 4 5 7 9 12 11 11 13 13 10 11 12 12 13 13 12 11 10 9 9 9 9 9 9 10 10 10 10 10 9 9 8 7 7 7 6 7 8 8 8
3 4 3 3 5 4 5 5 5 5 6 4 7 10 9 10 12 11 10 9 12 12 13 13 12 11 10 9 9 9 9 10 10 10 10 10 11 11 10 9 8 7 6 6 6 6 7 7 7
3 5 6 3 3 2 5 7 8 6 6 7 6 7 9 12 10 12 10 9 11 12 12 12 11 9 9 10 10 10 10 10 11 11 11 11 11 11 10 9 8 7 6 6 6 7 6 5 4
4 6 7 2 3 2 5 4 6 7 7 8 4 6 9 12 11 12 11 10 11 11 11 11 12 11 10 9 10 10 11 11 11 11 11 11 11 11 10 10 8 7 7 7 7 7 6 4 2
4 5 6 4 2 2 2 2 5 2 5 4 6 13 14 13 12 11 10 9 9 10 10 10 11 10 9 9 11 10 10 10 10 9 11 11 7 7 7 10 8 8 8 7 7 7 6 5 3
5 5 6 5 4 2 2 4 4 2 4 4 8 12 13 11 10 10 10 11 10 10 11 10 11 11 10 8 9 6 6 7 7 7 8 6 5 6 8 10 9 9 8 7 8 7 7 6 4
7 9 6 6 6 4 2 0 1 4 1 2 7 12 12 11 8 8 9 9 10 10 10 12 11 11 9 7 7 5 4 5 6 8 10 6 4 6 7 4 5 5 7 5 5 5 5 6 3
10 10 9 8 5 4 6 4 2 2 3 1 5 11 13 11 10 8 8 9 10 9 8 11 13 12 11 10 7 7 6 6 4 5 7 5 4 5 6 5 6 5 4 4 4 4 3 3 5
9 11 10 8 6 6 9 7 4 5 4 3 4 7 10 12 11 10 10 10 11 11 8 8 10 12 11 9 7 7 6 6 7 4 4 5 4 4 5 4 4 4 4 3 2 1 1 3 6
8 10 9 9 9 10 11 10 9 7 7 6 5 6 8 9 11 11 10 11 11 12 12 9 9 10 11 9 8 7 6 4 5 5 5 5 4 3 4 4 3 3 3 2 1 2 2 4 5
9 11 12 12 13 13 11 12 12 11 9 8 7 7 7 7 8 10 11 11 11 12 13 11 10 10 11 10 8 6 6 6 5 4 6 6 5 4 4 4 3 3 3 3 1 3 3 4 3
12 12 13 13 13 12 11 11 10 8 7 7 7 6 6 6 7 7 9 10 11 11 12 12 10 9 9 9 7 6 5 6 5 5 4 6 7 6 5 4 4 4 3 3 3 2 2 2 2
12 12 13 11 8 7 9 10 10 6 6 6 6 6 6 7 8 6 7 8 9 9 9 12 10 9 8 8 6 4 5 5 5 5 4 4 6 6 6 4 4 5 4 3 3 2 2 2 3
11 11 11 10 7 6 7 10 11 9 7 7 6 7 7 7 8 8 7 6 6 6 7 9 10 9 8 7 5 3 3 4 4 4 4 4 3 5 6 4 4 5 4 3 2 4 2 3 1
12 14 15 10 6 7 8 12 13 11 7 6 7 8 8 5 4 5 8 6 4 4 3 5 7 8 6 5 4 4 3 2 2 3 5 4 3 3 5 5 4 4 5 5 4 3 3 2 1
12 14 14 10 7 7 10 14 15 12 10 8 9 9 7 3 1 6 6 6 4 5 3 3 4 6 7 6 5 4 4 3 2 3 3 4 3 2 3 5 4 3 4 5 3 3 3 1 1
10 7 7 8 9 5 8 12 14 14 14 13 10 7 5 3 3 7 5 6 6 5 4 3 3 5 6 6 4 3 3 2 2 2 2 3 5 4 3 4 4 4 5 5 4 4 4 2 2
8 3 4 5 5 5 3 8 10 12 11 11 9 7 6 5 5 8 8 8 7 7 5 4 4 4 5 6 5 5 5 4 5 4 4 4 5 5 5 4 4 4 4 6 5 5 4 4 3
5 2 4 5 5 7 8 8 9 9 8 7 6 6 7 7 7 9 9 8 9 8 5 5 6 6 5 4 5 4 4 4 4 4 6 6 5 5 5 5 4 4 4 5 5 5 6 5 5
4 6 7 7 6 9 10 9 8 5 4 4 3 3 4 6 8 10 10 9 9 8 6 6 6 6 4 4 5 6 5 5 4 4 4 4 3 3 5 5 5 5 5 6 6 6 7 5 6
7 7 5 5 5 6 4 6 7 4 2 2 1 3 6 7 8 10 11 9 8 8 7 6 6 6 5 5 6 7 6 5 5 4 4 4 3 3 6 6 6 5 6 6 6 7 7 7 7
9 10 7 6 5 4 2 7 5 3 2 2 2 5 7 8 9 10 11 9 8 8 7 7 7 6 5 3 3 3 7 3 3 4 4 4 4 5 6 6 6 7 7 6 6 5 6 6 7
11 11 11 11 12 12 8 9 3 2 3 2 2 6 6 7 8 9 9 9 9 9 8 7 8 7 6 5 2 0 3 5 4 3 4 3 4 4 6 6 6 6 6 6 5 4 5 5 5
12 12 7 5 6 8 7 1 6 9 11 8 5 3 4 4 5 5 7 8 8 9 8 7 8 7 7 6 4 3 1 2 2 1 2 3 3 3 5 5 5 5 5 5 5 4 5 5 5
10 9 8 5 5 4 4 2 6 11 14 14 10 9 7 5 3 1 0 4 6 8 8 7 7 7 7 6 6 6 4 3 3 2 2 3 3 3 3 5 5 6 6 6 5 5 5 6 5
7 6 5 4 5 3 2 1 7 10 12 14 11 9 6 3 1 2 2 5 5 6 8 8 8 7 7 6 6 7 6 5 4 4 4 3 3 4 3 4 4 5 6 6 6 6 6 6 6
Wind_Direction
279 259 247 253 262 235 65 61 57 45 45 49 26 26 64 53 45 80 157 147 124 124 131 141 142 143 143 142 140 135 129 124 121 119 120 122 122 120 116 112 102 91 77 68 62 62 62 59 57
285 291 274 239 252 74 75 65 61 60 51 41 35 35 65 63 80 101 127 108 124 128 139 142 144 145 147 149 149 145 140 134 130 127 126 127 127 126 122 115 107 97 84 74 69 68 65 61 57
263 271 269 254 321 56 65 64 65 65 42 35 58 60 53 49 84 117 125 129 130 128 133 132 145 147 149 153 154 152 148 143 139 136 132 131 129 128 127 119 111 100 86 80 76 72 68 64 58
272 258 245 255 14 59 47 77 76 75 59 38 58 74 70 53 74 108 128 142 125 126 127 135 144 148 151 154 155 155 152 148 144 139 133 131 131 131 129 122 113 104 94 86 83 77 73 67 59
248 263 267 277 75 73 61 56 74 91 71 50 73 91 86 78 93 112 131 130 130 130 127 138 143 149 151 153 155 155 153 149 143 138 134 134 133 130 127 121 114 109 101 91 86 83 78 72 60
274 262 286 298 76 47 51 48 43 70 83 77 87 97 97 111 112 123 125 135 134 132 131 134 145 149 152 154 155 155 152 147 142 139 136 134 130 128 124 119 117 115 108 96 91 91 84 75 58
287 285 268 254 83 61 39 24 32 29 76 68 68 104 116 111 121 133 138 140 135 135 135 143 150 153 154 155 155 154 150 147 142 137 134 132 130 128 125 124 122 121 117 107 103 103 96 86 65
296 287 293 319 100 63 42 23 43 21 62 55 52 96 117 122 138 138 143 139 141 142 145 152 152 156 157 156 156 154 151 148 144 140 137 137 136 135 137 133 127 129 124 116 119 125 124 119 110
271 270 302 337 58 79 60 3 70 347 88 96 85 86 105 124 134 138 141 144 147 149 152 153 153 152 152 155 151 152 152 151 148 148 150 151 157 152 157 125 135 134 128 131 145 157 157 161 184
232 275 300 322 339 19 73 25 10 340 89 123 114 107 116 134 144 149 154 155 155 161 160 157 153 151 157 153 142 153 158 157 174 165 169 191 185 143 123 131 140 141 145 161 182 191 185 191 201
247 262 281 292 308 326 321 167 270 314 20 151 149 144 143 147 155 161 166 158 157 164 163 158 157 152 144 135 149 157 164 175 197 178 179 192 150 123 123 146 147 157 171 193 190 214 217 206 187
265 282 290 300 317 306 290 282 265 275 303 15 133 142 148 161 168 175 168 156 154 156 159 157 157 152 156 154 157 166 174 180 191 197 187 171 160 157 155 164 174 172 195 198 189 218 225 191 177
267 270 278 278 282 265 268 274 275 275 278 270 140 148 162 173 176 178 171 159 157 153 158 161 158 159 161 156 159 174 176 175 174 181 194 170 161 161 157 170 171 177 164 186 204 161 58 44 50
284 301 293 284 273 260 260 260 252 246 244 241 205 186 186 178 179 177 175 166 165 160 163 165 170 163 158 159 172 168 168 162 160 165 188 178 165 171 158 153 167 151 153 162 161 113 84 65 58
284 284 277 266 259 252 256 254 250 245 230 227 221 212 199 185 182 182 178 172 170 166 166 168 175 169 163 164 169 159 165 163 158 163 189 185 169 177 157 153 158 156 158 161 124 98 90 108 121
275 265 261 258 250 244 243 254 260 254 220 219 230 223 186 193 204 194 177 172 167 166 166 164 175 172 165 160 162 160 168 156 156 165 200 191 173 180 161 156 161 170 159 136 107 111 100 110 127
264 258 268 280 272 244 236 253 263 259 229 223 229 239 212 197 205 206 181 167 158 159 160 163 171 172 163 151 152 150 160 153 157 165 190 202 182 178 155 158 169 170 144 135 154 142 137 117 87
278 289 296 302 336 311 275 274 275 268 243 240 237 236 234 222 209 201 170 143 141 155 166 167 166 169 157 145 151 144 152 155 157 158 178 201 187 181 150 150 191 161 141 141 148 127 113 108 146
283 288 288 294 351 328 286 278 276 272 258 246 252 256 254 256 255 152 130 128 144 148 161 156 154 162 148 143 144 149 165 163 158 161 176 186 190 186 156 159 191 161 146 150 161 134 136 132 171
281 285 293 311 351 341 311 293 286 278 268 251 250 257 261 290 12 98 114 136 143 118 116 121 142 145 142 144 153 159 165 187 186 167 174 166 188 203 178 164 167 150 133 141 148 124 129 159 175
286 297 311 313 317 298 304 288 277 274 267 260 251 247 249 239 179 140 138 120 109 107 101 87 83 113 125 133 134 144 149 182 200 188 192 186 189 192 178 184 167 155 143 149 152 141 149 168 244
278 299 304 308 311 299 294 288 282 283 272 262 249 236 225 208 171 140 134 124 122 112 110 122 108 104 116 130 149 165 173 185 198 193 195 203 198 189 187 189 178 161 149 154 164 155 152 162 211
270 240 253 263 266 272 256 261 271 261 256 256 242 214 210 185 156 140 139 136 129 123 125 119 117 116 123 143 155 173 188 192 194 191 197 200 203 195 188 187 187 172 158 162 169 163 164 175 190
213 231 241 244 246 256 244 233 269 265 250 259 224 194 181 156 150 142 134 125 118 118 118 117 122 122 134 152 166 187 194 186 184 187 197 197 192 196 198 185 192 188 177 178 176 177 181 186 196
229 248 264 250 230 256 288 244 251 249 256 274 249 158 153 149 148 138 130 126 130 136 138 134 127 133 156 185 197 188 177 181 190 187 193 189 191 201 207 195 195 195 192 189 184 189 193 191 195
253 248 249 271 274 284 278 261 276 273 231 208 165 136 145 148 139 136 141 144 147 149 150 149 148 153 163 202 237 177 154 168 179 178 178 186 190 201 200 193 194 194 191 190 189 187 188 190 197
282 264 266 275 273 272 240 223 203 315 323 348 119 127 137 141 140 145 148 154 155 157 163 164 158 157 162 190 208 8 132 157 167 184 176 166 180 189 181 186 195 188 185 187 181 189 190 190 198
270 278 274 254 269 267 274 324 17 9 351 355 18 83 116 132 142 151 157 166 164 160 165 169 162 161 170 180 172 140 138 139 132 148 148 162 178 156 165 177 182 177 178 178 176 185 192 187 192
310 298 289 276 257 268 294 40 15 356 353 351 9 18 28 31 23 18 233 178 182 167 165 168 165 167 176 181 168 152 186 174 166 174 173 166 166 161 178 175 177 171 173 178 177 182 183 190 190
353 327 318 295 274 289 307 44 30 356 349 339 354 8 11 357 280 169 213 231 206 176 172 172 175 180 180 185 175 167 174 161 175 189 179 179 172 171 195 179 171 168 170 172 176 184 183 187 192